Weather in Mira Bhayandar

India     19°16′46″N   72°51′23″E
temp.,
°C
wind,
m/s
gust,
m/s
humid.,
%
clouds,
%
prec.,
mm/h
press.,
hPa
HPBL,
m
9 march, tue
tue923:30+27nnw45650 0.0 1012215
02:30+26nnw56700 0.0 1011395
05:30+26n57700 0.0 1011371
08:30+26nne33490 0.0 1014191
11:30+28nnw34530 0.0 1014194
14:30+28nw77570 0.0 1010163
17:30+29nw810530 0.0 1010176
20:30+29nnw57570 0.0 1012142
10 march, wed
wed1023:30+28nw45560 0.0 1012101
02:30+27n47680 0.0 1011451
05:30+27n24600 0.0 1012289
08:30+27n23550 0.0 1014224
11:30+28nw33550 0.0 1014228
14:30+27nw66650 0.0 1010172
17:30+28nw79630 0.0 1009207
20:30+28nnw46650 0.0 1011169
11 march, thu
thu1123:30+28nnw33600 0.0 101298
02:30+27n67700 0.0 1010521
05:30+26n35660 0.0 1011433
08:30+26n33590 0.0 1013297
11:30+28nw33560 0.0 1013257
14:30+27nw78640 0.0 1010251
17:30+27nw911640 0.0 1009306
20:30+27nw57640 0.0 1011314
12 march, fri
fri1223:30+27nnw45670 0.0 1012424
02:30+26nne346722 0.0 1011458
05:30+25n347048 0.0 1012383
08:30+26nne346744 0.0 1015335
11:30+28nw335735 0.0 1015252
14:30+26nw77640 0.0 1011231
17:30+28nnw810600 0.0 1010251
20:30+29nnw67530 0.0 1012128
13 march, sat
sat1323:30+28nnw68550 0.0 1012218
02:30+27n811680 0.0 1012559
05:30+27n610570 0.0 1012373
08:30+27ne464928 0.0 1015225
11:30+30nnw125023 0.0 1015189
14:30+27nnw89560 0.0 1011156
17:30+29nnw912530 0.0 1009192
20:30+30n711520 0.0 1011194